GW4457 Weather Reports


time (UTC)temp
F
wind
direction
speed
knots
gust
knots
rain 1hr
in
rain 24hr
in
rain mn
in
humidity
%
barometer
mb
20260901085043 75 106 7.8 13.9 0.00 0.00 0.00 85 1019.7
20260901084540 75 77 6.1 13.0 0.00 0.00 0.00 86 1019.8
20260901084036 75 64 7.8 14.8 0.00 0.00 0.00 86 1019.8
20260901083535 75 66 5.2 13.0 0.00 0.00 0.00 86 1019.7
20260901083033 75 60 12.2 19.1 0.00 0.00 0.00 87 1019.7
20260901082530 75 74 13.0 14.8 0.00 0.00 0.00 87 1019.8
20260901082025 75 86 5.2 11.3 0.00 0.00 0.00 88 1019.9
20260901081520 75 59 6.1 9.6 0.00 0.00 0.00 88 1019.9
20260901081015 75 54 6.1 12.2 0.00 0.00 0.00 88 1019.7
20260901080514 75 88 7.0 14.8 0.00 0.00 0.00 89 1019.9
20260901080013 75 72 5.2 13.0 0.00 0.00 0.00 89 1020.1
20260901075510 75 77 8.7 13.0 0.00 0.00 0.00 89 1019.9
20260901075009 75 67 10.4 14.8 0.00 0.00 0.00 89 1020.1
20260901074508 75 76 7.8 20.9 0.00 0.00 0.00 89 1020.1
20260901074004 75 61 6.1 13.0 0.00 0.00 0.00 89 1019.9
20260901073501 75 79 9.6 15.6 0.00 0.00 0.00 90 1019.9
20260901073001 75 83 11.3 13.0 0.00 0.00 0.00 89 1020.1
20260901072456 75 64 10.4 20.9 0.00 0.00 0.00 90 1019.9
20260901071951 75 83 12.2 19.1 0.00 0.00 0.00 90 1019.8
20260901071449 75 96 9.6 18.2 0.00 0.00 0.00 90 1019.8
20260901070944 75 91 11.3 20.0 0.00 0.00 0.00 90 1019.9
20260901070439 75 96 12.2 20.0 0.00 0.00 0.00 90 1020.1
20260901065938 76 73 12.2 20.9 0.00 0.00 0.00 90 1020.1
20260901065434 76 48 16.5 20.0 0.00 0.00 0.00 89 1020.3
20260901064928 76 2 10.4 16.5 0.00 0.00 0.00 89 1020.4
20260901064425 76 62 5.2 15.6 0.00 0.00 0.00 89 1020.4
20260901063922 76 98 13.0 21.7 0.00 0.00 0.00 88 1020.4
20260901063418 77 69 5.2 15.6 0.00 0.00 0.00 88 1020.8
20260901062914 77 80 8.7 16.5 0.00 0.00 0.00 88 1020.7
20260901062409 77 157 10.4 13.0 0.00 0.00 0.00 88 1020.8
20260901061904 78 104 13.0 18.2 0.00 0.00 0.00 88 1020.9
20260901061400 78 134 8.7 21.7 0.00 0.00 0.00 87 1021.0
20260901060855 78 40 7.8 21.7 0.00 0.00 0.00 87 1020.8
20260901060351 78 119 18.2 21.7 0.00 0.00 0.00 86 1020.8
20260901055850 78 109 12.2 16.5 0.00 0.00 0.00 86 1020.6
20260901055346 79 96 14.8 20.0 0.00 0.00 0.00 85 1020.8
20260901054843 80 136 12.2 19.1 0.00 0.00 0.00 83 1020.8
20260901054340 80 116 11.3 19.1 0.00 0.00 0.00 81 1020.9
20260901053836 80 156 10.4 25.2 0.00 0.00 0.00 81 1020.6
20260901053331 80 93 7.8 18.2 0.00 0.00 0.00 81 1020.9
20260901052826 80 95 13.0 19.1 0.00 0.00 0.00 81 1020.6
20260901052322 80 64 13.0 16.5 0.00 0.00 0.00 81 1020.8
20260901051820 80 84 13.0 15.6 0.00 0.00 0.00 81 1020.8
20260901051316 80 111 7.8 12.2 0.00 0.00 0.00 81 1020.9
20260901050810 80 94 9.6 13.0 0.00 0.00 0.00 81 1020.9
20260901050306 80 97 9.6 14.8 0.00 0.00 0.00 82 1020.9
20260901045801 80 105 5.2 14.8 0.00 0.00 0.00 83 1020.9
20260901045255 80 120 4.3 11.3 0.00 0.00 0.00 83 1021.0
20260901044751 80 90 7.0 13.0 0.00 0.00 0.00 83 1021.2
20260901044248 80 346 7.0 12.2 0.00 0.00 0.00 83 1021.2
20260901043743 80 102 7.0 13.0 0.00 0.00 0.00 83 1021.2
20260901043238 80 77 8.7 12.2 0.00 0.00 0.00 83 1021.2
20260901042732 80 69 9.6 15.6 0.00 0.00 0.00 83 1021.3
20260901042227 80 83 9.6 13.0 0.00 0.00 0.00 83 1021.6
20260901041723 80 119 4.3 11.3 0.00 0.00 0.00 83 1021.6
20260901041222 80 91 7.0 13.0 0.00 0.00 0.00 83 1021.6
20260901040717 80 152 7.0 19.1 0.00 0.00 0.00 83 1021.9
20260901040216 80 59 7.8 15.6 0.00 0.00 0.00 83 1021.7
20260901035715 80 144 9.6 13.0 0.00 0.01 0.01 83 1021.8
20260901035214 80 86 8.7 13.0 0.00 0.01 0.01 83 1021.9
20260901034708 80 102 8.7 8.7 0.00 0.01 0.01 83 1021.8
20260901034203 80 107 9.6 13.0 0.00 0.01 0.01 82 1022.0
20260901033702 80 102 8.7 9.6 0.00 0.01 0.01 82 1021.9
20260901033201 80 150 5.2 13.9 0.00 0.01 0.01 82 1022.0
20260901032700 80 85 8.7 16.5 0.00 0.01 0.01 82 1021.8
20260901032154 80 33 7.8 13.0 0.00 0.01 0.01 82 1021.8
20260901031650 80 59 6.1 14.8 0.00 0.01 0.01 82 1021.9
20260901031146 80 70 5.2 16.5 0.00 0.01 0.01 81 1021.9
20260901030640 80 125 13.0 14.8 0.00 0.01 0.01 81 1021.5
20260901030135 80 93 7.0 9.6 0.00 0.01 0.01 80 1021.4
20260901025629 80 105 8.7 12.2 0.00 0.01 0.01 79 1021.6
20260901025124 80 66 7.8 11.3 0.00 0.01 0.01 78 1021.2
20260901024624 80 88 8.7 9.6 0.00 0.01 0.01 77 1021.3
20260901024123 80 89 7.8 9.6 0.00 0.01 0.01 77 1021.6
20260901023622 79 86 3.5 8.7 0.00 0.01 0.01 78 1021.2
20260901023117 80 80 6.1 7.0 0.00 0.01 0.01 79 1021.4
20260901022612 80 62 4.3 9.6 0.00 0.01 0.01 79 1021.2
20260901022108 80 98 7.0 12.2 0.00 0.01 0.01 80 1021.4
20260901021603 80 77 9.6 13.0 0.00 0.01 0.01 81 1021.4
20260901021058 80 56 5.2 15.6 0.00 0.01 0.01 81 1021.6
20260901020554 80 61 7.0 13.0 0.00 0.01 0.01 80 1021.5
20260901020050 80 22 7.8 13.9 0.00 0.01 0.01 80 1021.4
20260901015545 80 75 8.7 14.8 0.00 0.01 0.01 81 1021.5
20260901015044 80 86 7.8 12.2 0.00 0.01 0.01 82 1021.4
20260901014540 80 13 5.2 14.8 0.00 0.01 0.01 82 1021.3
20260901014036 80 83 10.4 15.6 0.00 0.01 0.01 82 1021.4
20260901013532 80 75 10.4 13.0 0.00 0.01 0.01 82 1021.6
20260901013027 80 100 7.0 15.6 0.00 0.01 0.01 82 1021.4
20260901012527 80 88 13.9 16.5 0.00 0.01 0.01 82 1021.4
20260901012022 80 111 5.2 11.3 0.00 0.01 0.01 82 1021.5
20260901011519 80 153 5.2 11.3 0.00 0.01 0.01 82 1021.2
20260901011016 80 111 7.8 12.2 0.00 0.01 0.01 82 1021.3
20260901010511 80 89 7.0 12.2 0.00 0.01 0.01 81 1021.3
20260901010010 80 130 5.2 13.0 0.00 0.01 0.01 81 1021.4
20260901005505 80 97 5.2 14.8 0.00 0.01 0.01 81 1021.3
20260901005000 80 117 9.6 14.8 0.00 0.01 0.01 81 1021.2
20260901004500 80 89 14.8 18.2 0.00 0.01 0.01 81 1021.3
20260901003955 80 113 9.6 13.9 0.00 0.01 0.01 81 1021.3
20260901003450 80 63 9.6 15.6 0.00 0.01 0.01 81 1021.1
20260901002948 80 109 10.4 15.6 0.00 0.01 0.01 82 1021.0
20260901002448 80 112 13.0 16.5 0.00 0.01 0.01 82 1020.9
20260901001947 81 105 7.8 13.9 0.00 0.01 0.01 81 1020.9
20260901001443 81 116 9.6 14.8 0.00 0.01 0.01 81 1020.8
20260901000938 81 63 9.6 16.5 0.00 0.01 0.01 82 1020.7
20260901000435 81 94 10.4 14.8 0.00 0.01 0.01 83 1020.7
20260831235932 82 88 11.3 15.6 0.00 0.01 0.01 83 1020.6
20260831235428 82 137 5.2 14.8 0.00 0.01 0.01 82 1020.7
20260831234923 82 84 10.4 14.8 0.00 0.01 0.01 81 1020.7
20260831234423 82 98 14.8 18.2 0.00 0.01 0.01 81 1020.4
20260831233919 82 103 7.0 13.0 0.00 0.01 0.01 80 1020.3
20260831233414 82 62 7.0 13.9 0.00 0.01 0.01 79 1020.4
20260831232909 82 80 4.3 13.9 0.00 0.01 0.01 79 1020.3
20260831232405 82 100 11.3 13.0 0.00 0.01 0.01 79 1020.3
20260831231900 82 85 13.0 15.6 0.00 0.01 0.01 80 1020.2
20260831231357 82 136 8.7 18.2 0.00 0.01 0.01 81 1020.1
20260831230853 82 224 2.6 9.6 0.00 0.01 0.01 81 1020.2
20260831230352 82 83 11.3 15.6 0.00 0.01 0.01 81 1020.0
20260831225847 82 123 11.3 15.6 0.00 0.01 0.01 81 1020.1
20260831225342 82 150 6.1 20.0 0.00 0.01 0.01 81 1020.2
20260831224837 82 106 13.0 18.2 0.00 0.01 0.01 81 1020.0
20260831224332 82 83 7.8 14.8 0.00 0.01 0.01 81 1020.0
20260831223827 82 68 7.8 8.7 0.00 0.01 0.01 80 1019.9
20260831223323 82 80 9.6 13.0 0.00 0.01 0.01 81 1019.8
20260831222820 82 137 9.6 18.2 0.00 0.01 0.01 81 1020.0
20260831222315 82 86 10.4 15.6 0.00 0.01 0.01 81 1019.8
20260831221810 82 118 7.0 14.8 0.00 0.01 0.01 81 1019.8
20260831221306 82 120 9.6 14.8 0.00 0.01 0.01 81 1019.6
20260831220806 82 102 11.3 14.8 0.00 0.01 0.01 81 1019.8
20260831220301 82 125 12.2 15.6 0.00 0.01 0.01 81 1019.5
20260831215756 82 102 13.9 18.2 0.00 0.01 0.01 80 1019.5
20260831215253 82 90 12.2 16.5 0.00 0.01 0.01 80 1019.3
20260831214749 83 109 11.3 18.2 0.00 0.01 0.01 80 1019.1
20260831214246 83 109 11.3 18.2 0.00 0.01 0.01 80 1019.3
20260831213741 83 90 11.3 16.5 0.00 0.01 0.01 80 1019.2
20260831213238 83 85 11.3 14.8 0.00 0.01 0.01 79 1019.4
20260831212737 83 101 10.4 13.0 0.00 0.01 0.01 79 1019.4
20260831212234 83 106 11.3 13.0 0.00 0.01 0.01 79 1019.5
20260831211732 83 114 7.0 18.2 0.00 0.01 0.01 79 1019.5
20260831211229 83 130 7.0 13.0 0.00 0.01 0.01 80 1019.6
20260831210723 83 116 12.2 13.9 0.00 0.01 0.01 79 1019.7
20260831210219 83 76 7.8 15.6 0.00 0.01 0.01 79 1019.6
20260831205717 83 107 10.4 14.8 0.00 0.01 0.01 79 1019.7
20260831205214 83 91 11.3 13.9 0.00 0.01 0.01 79 1019.7
20260831204708 83 97 11.3 20.0 0.00 0.01 0.01 79 1019.7
20260831204208 83 113 13.9 16.5 0.00 0.01 0.01 79 1019.5
20260831203702 83 76 7.0 13.0 0.00 0.01 0.01 79 1019.6
20260831203201 84 202 6.1 13.9 0.00 0.01 0.01 79 1019.7
20260831202659 84 96 9.6 14.8 0.00 0.01 0.01 79 1019.5
20260831202155 83 132 8.7 13.0 0.00 0.01 0.01 79 1019.4
20260831201654 84 98 12.2 16.5 0.00 0.01 0.01 79 1019.2
20260831201148 84 118 12.2 19.1 0.00 0.01 0.01 78 1019.4
20260831200644 84 101 10.4 13.9 0.00 0.01 0.01 78 1019.4
20260831200139 84 121 11.3 14.8 0.00 0.01 0.01 77 1019.6
20260831195635 84 95 9.6 13.0 0.00 0.01 0.01 78 1019.6
20260831195135 84 122 11.3 13.9 0.00 0.01 0.01 77 1019.8
20260831194630 84 81 10.4 15.6 0.00 0.01 0.01 77 1019.5
20260831194125 84 104 10.4 15.6 0.00 0.01 0.01 77 1019.7
20260831193620 84 149 10.4 18.2 0.00 0.01 0.01 77 1019.6
20260831193115 84 76 9.6 14.8 0.00 0.01 0.01 77 1019.6
20260831192610 84 112 11.3 13.9 0.00 0.01 0.01 77 1019.7
20260831192106 84 125 12.2 18.2 0.00 0.01 0.01 77 1019.6
20260831191601 84 108 9.6 14.8 0.00 0.01 0.01 77 1019.9
20260831191057 84 123 10.4 13.9 0.00 0.01 0.01 77 1020.0
20260831190552 84 117 8.7 13.9 0.00 0.01 0.01 77 1020.0
20260831190050 85 101 14.8 18.2 0.00 0.01 0.01 76 1020.0
20260831185546 84 84 11.3 13.9 0.00 0.01 0.01 77 1020.1
20260831185042 85 100 12.2 18.2 0.00 0.01 0.01 76 1020.2
20260831184541 85 93 8.7 16.5 0.00 0.01 0.01 76 1020.0
20260831184037 85 96 9.6 16.5 0.00 0.01 0.01 75 1020.2
20260831183536 86 76 15.6 20.0 0.00 0.01 0.01 73 1020.0
20260831183036 86 96 9.6 18.2 0.00 0.01 0.01 73 1020.2
20260831182531 87 93 13.9 16.5 0.00 0.01 0.01 73 1020.1
20260831182027 87 78 13.9 19.1 0.00 0.01 0.01 72 1020.0
20260831181526 87 134 12.2 20.0 0.00 0.01 0.01 71 1020.1
20260831181026 87 126 11.3 18.2 0.00 0.01 0.01 73 1020.3
20260831180521 87 104 16.5 19.1 0.00 0.01 0.01 72 1020.1
20260831180016 87 94 13.9 20.0 0.00 0.01 0.01 72 1020.3
20260831175511 88 112 14.8 20.0 0.00 0.01 0.01 69 1020.4
20260831175008 87 100 13.0 15.6 0.00 0.01 0.01 72 1020.4
20260831174503 88 110 15.6 20.0 0.00 0.01 0.01 69 1020.5
20260831174002 88 140 13.0 15.6 0.00 0.01 0.01 69 1020.5
20260831173501 89 106 7.8 15.6 0.00 0.01 0.01 69 1020.7
20260831172957 88 55 9.6 20.0 0.00 0.01 0.01 70 1020.8
20260831172453 89 117 13.0 21.7 0.00 0.01 0.01 69 1020.8
20260831171948 88 148 9.6 18.2 0.00 0.01 0.01 69 1020.6
20260831171443 88 67 9.6 18.2 0.00 0.01 0.01 70 1020.8
20260831170940 88 100 11.3 20.0 0.00 0.01 0.01 70 1020.7
20260831170436 87 96 14.8 18.2 0.00 0.01 0.01 70 1020.7
20260831165932 88 89 11.3 20.9 0.00 0.01 0.01 70 1020.8
20260831165428 87 64 13.9 20.9 0.00 0.01 0.01 70 1021.0
20260831164925 87 121 13.9 21.7 0.00 0.01 0.01 70 1021.1
20260831164421 88 123 13.9 20.9 0.00 0.01 0.01 69 1021.2
20260831163920 87 79 16.5 20.9 0.00 0.01 0.01 70 1021.1
20260831163416 87 71 14.8 19.1 0.00 0.01 0.01 70 1021.4
20260831162915 88 62 14.8 20.9 0.00 0.01 0.01 69 1021.2
20260831162410 88 120 14.8 20.0 0.00 0.01 0.01 70 1021.2
20260831161908 87 165 15.6 21.7 0.00 0.01 0.01 70 1021.3
20260831161405 87 161 13.0 19.1 0.00 0.01 0.01 71 1021.2
20260831160900 87 132 13.0 20.9 0.00 0.01 0.01 69 1021.2
20260831160355 88 148 14.8 18.2 0.00 0.01 0.01 68 1021.2
20260831155850 87 127 15.6 21.7 0.00 0.01 0.01 69 1021.4
20260831155349 87 150 13.9 15.6 0.00 0.01 0.01 69 1021.5
20260831154845 87 202 11.3 20.0 0.00 0.01 0.01 71 1021.3
20260831154342 87 154 9.6 22.6 0.00 0.01 0.01 70 1021.6
20260831153840 87 99 15.6 19.1 0.00 0.01 0.01 70 1021.3
20260831153336 87 132 13.9 16.5 0.00 0.01 0.01 70 1021.2
20260831152832 87 109 14.8 22.6 0.00 0.01 0.01 71 1021.2
20260831152328 87 118 16.5 20.9 0.00 0.01 0.01 70 1021.2
20260831151823 87 116 19.1 20.9 0.00 0.01 0.01 70 1021.2
20260831151322 86 101 13.9 20.9 0.00 0.01 0.01 72 1021.2
20260831150817 86 112 12.2 20.0 0.00 0.01 0.01 73 1021.1
20260831150313 87 76 9.6 21.7 0.00 0.01 0.01 72 1020.8
20260831145811 87 122 14.8 23.5 0.00 0.01 0.01 72 1020.8
20260831145308 87 70 14.8 20.9 0.00 0.01 0.01 73 1021.0
20260831144804 87 28 13.0 20.9 0.00 0.01 0.01 73 1020.7
20260831144300 87 157 10.4 20.9 0.00 0.01 0.01 73 1020.6
20260831143759 87 121 12.2 16.5 0.00 0.01 0.01 73 1020.6
20260831143254 87 103 9.6 20.9 0.00 0.01 0.01 73 1020.5
20260831142749 88 127 15.6 21.7 0.00 0.01 0.01 70 1020.4
20260831142245 87 99 14.8 16.5 0.00 0.01 0.01 72 1020.7
20260831141739 86 151 13.9 19.1 0.00 0.01 0.01 75 1020.4
20260831141234 86 78 12.2 20.0 0.00 0.01 0.01 74 1020.6
20260831140734 86 123 13.9 20.0 0.00 0.01 0.01 73 1020.5
20260831140229 86 112 11.3 19.1 0.00 0.01 0.01 73 1020.4
20260831135726 86 166 8.7 15.6 0.00 0.01 0.01 74 1020.5
20260831135223 87 95 17.4 22.6 0.00 0.01 0.01 71 1020.2
20260831134718 86 34 7.8 16.5 0.00 0.01 0.01 74 1020.0
20260831134215 86 118 15.6 20.9 0.00 0.01 0.01 74 1019.9
20260831133713 86 93 11.3 21.7 0.00 0.01 0.01 74 1020.0
20260831133208 86 110 15.6 20.0 0.00 0.01 0.01 73 1020.0
20260831132703 86 96 15.6 20.9 0.00 0.01 0.01 74 1020.1
20260831132203 84 112 14.8 19.1 0.00 0.01 0.01 77 1019.6
20260831131702 84 95 13.0 16.5 0.00 0.01 0.01 79 1020.0
20260831131159 84 134 13.9 19.1 0.00 0.01 0.01 79 1020.1
20260831130654 84 113 11.3 19.1 0.00 0.01 0.01 79 1019.8
20260831130149 85 104 15.6 20.9 0.00 0.01 0.01 78 1019.8
20260831125648 84 86 13.0 19.1 0.00 0.01 0.01 80 1019.9
20260831125144 83 110 13.9 18.2 0.00 0.01 0.01 81 1019.8
20260831124640 82 105 9.6 19.1 0.00 0.01 0.01 84 1019.6
20260831124136 83 103 13.9 20.0 0.00 0.01 0.01 83 1019.9
20260831123635 82 133 13.9 15.6 0.00 0.01 0.01 86 1019.6
20260831123134 80 165 9.6 18.2 0.00 0.01 0.01 88 1019.6
20260831122634 79 137 13.0 16.5 0.00 0.01 0.01 88 1019.7
20260831122130 79 122 12.2 20.0 0.00 0.01 0.01 85 1019.8
20260831121629 81 91 15.6 21.7 0.00 0.01 0.01 82 1019.6
20260831121126 82 118 10.4 18.2 0.00 0.01 0.01 83 1019.5
20260831120626 82 81 17.4 20.0 0.00 0.01 0.01 82 1019.6
20260831120121 82 118 14.8 20.9 0.00 0.01 0.01 82 1019.4
20260831115617 82 60 9.6 21.7 0.00 0.01 0.01 84 1019.3
20260831115113 81 95 11.3 20.9 0.00 0.01 0.01 85 1019.4
20260831114611 81 99 19.1 22.6 0.00 0.01 0.01 85 1019.2
20260831114107 81 94 12.2 20.0 0.00 0.01 0.01 86 1019.3
20260831113606 81 102 16.5 20.9 0.00 0.01 0.01 85 1019.4
20260831113102 80 114 14.8 21.7 0.00 0.01 0.01 86 1019.4
20260831112600 81 123 12.2 21.7 0.00 0.01 0.01 86 1019.3
20260831112056 80 111 10.4 21.7 0.00 0.01 0.01 87 1019.4
20260831111552 80 124 10.4 19.1 0.00 0.01 0.01 87 1019.1
20260831111047 80 118 18.2 22.6 0.00 0.01 0.01 89 1019.0
20260831110542 79 103 13.0 16.5 0.00 0.01 0.01 90 1019.1
20260831110037 79 114 15.6 20.9 0.00 0.01 0.01 90 1019.0
20260831105537 79 100 14.8 20.9 0.00 0.01 0.01 90 1019.0
20260831105032 79 90 13.0 20.9 0.00 0.01 0.01 91 1019.0
20260831104528 79 110 15.6 22.6 0.00 0.01 0.01 91 1018.9
20260831104024 79 85 13.9 20.0 0.00 0.01 0.01 91 1018.7
20260831103519 79 87 15.6 21.7 0.00 0.01 0.01 92 1018.7
20260831103015 79 98 14.8 20.9 0.00 0.01 0.01 92 1018.8
20260831102514 79 137 15.6 20.9 0.00 0.01 0.01 92 1018.6
20260831102009 79 188 13.0 23.5 0.00 0.01 0.01 92 1018.6
20260831101504 78 113 10.4 20.9 0.00 0.01 0.01 92 1018.7
20260831101000 79 88 13.0 16.5 0.00 0.01 0.01 92 1018.6
20260831100456 79 148 16.5 20.0 0.00 0.01 0.01 92 1018.4
20260831095951 79 105 12.2 20.0 0.00 0.01 0.01 92 1018.3
20260831095451 79 151 9.6 15.6 0.00 0.01 0.01 91 1018.4
20260831094945 79 155 7.0 20.9 0.05 0.01 0.01 91 1018.4
20260831094442 79 80 13.0 21.7 0.05 0.01 0.01 90 1018.3
20260831093937 80 51 8.7 12.2 0.00 0.00 0.00 89 1018.1
20260831093432 80 63 14.8 18.2 0.00 0.00 0.00 89 1018.1
20260831092929 80 97 7.8 16.5 0.00 0.00 0.00 89 1018.1
20260831092424 80 109 13.9 20.9 0.00 0.00 0.00 89 1018.2
20260831091919 80 112 13.9 18.2 0.00 0.00 0.00 89 1018.1
20260831091414 80 106 12.2 13.9 0.00 0.00 0.00 89 1018.2
20260831090910 80 124 12.2 18.2 0.00 0.00 0.00 89 1018.4
20260831090407 80 125 11.3 18.2 0.00 0.00 0.00 90 1018.1
20260831085903 80 80 12.2 21.7 0.00 0.00 0.00 90 1018.2